Wind_Speed
44 43 38 33 32 27 27 20 19 18 19 13 16 15 20 15 18 15 20 20 17 15 16 16 16 15 15 14 14 14 13 12 11 10 11 14 14 10 7 7 5 4 4
45 43 38 32 29 28 23 21 20 21 19 16 17 17 22 17 19 18 18 20 18 15 17 15 15 13 12 12 13 14 13 11 10 9 11 10 8 7 5 4 6 4 4
44 42 37 35 30 28 24 24 23 23 21 17 18 21 24 20 21 19 19 20 21 19 17 16 14 13 11 11 11 10 12 12 10 10 9 8 7 8 7 7 5 6 3
46 43 41 38 35 26 29 26 24 26 24 18 18 24 26 25 23 23 22 21 22 20 18 17 15 13 12 13 13 11 11 11 11 10 9 9 8 8 8 7 6 6 6
50 47 43 38 38 34 30 27 25 30 28 20 18 28 30 30 25 27 23 25 25 24 23 21 18 15 13 13 14 13 11 12 11 11 10 12 11 10 9 9 10 8 6
55 51 43 38 42 41 34 32 28 31 32 28 22 28 34 33 29 27 26 24 27 27 27 24 22 19 18 15 13 11 11 11 12 12 15 13 14 13 12 12 12 9 8
52 55 44 46 49 40 37 36 27 31 34 33 24 24 37 38 34 29 28 28 28 28 26 26 24 21 20 17 15 15 13 12 12 12 12 14 17 15 17 17 17 13 11
52 49 52 51 46 42 41 36 30 32 38 35 28 24 35 39 38 34 30 31 31 30 29 26 24 22 21 19 16 14 14 14 14 14 13 12 13 15 17 18 20 18 17
56 53 49 44 43 37 37 39 34 34 39 39 33 29 32 41 43 39 34 29 33 31 29 27 25 23 23 21 19 16 15 15 15 15 15 14 14 15 16 16 17 22 23
55 57 56 45 39 34 34 28 33 36 39 37 38 29 36 43 43 42 37 32 29 35 33 30 27 26 24 22 19 17 17 15 14 13 14 14 16 16 17 18 19 20 20
55 62 56 49 34 29 32 27 24 36 35 38 41 37 39 43 44 45 42 36 35 34 36 31 30 29 28 26 23 21 20 16 12 12 14 14 17 19 20 19 19 21 22
59 61 53 40 41 35 29 22 23 28 31 40 45 44 40 43 45 47 46 39 35 32 31 33 33 33 32 31 29 25 21 20 16 13 14 17 17 19 20 18 18 19 22
66 73 70 42 40 36 35 25 24 32 29 36 44 45 42 47 45 47 49 41 36 37 33 34 35 35 35 34 33 32 26 20 18 18 17 18 21 21 21 21 19 18 17
82 86 35 37 46 49 40 37 34 39 44 34 46 47 43 46 46 48 48 44 36 37 35 36 34 36 41 41 38 36 32 28 24 22 21 21 23 22 22 21 18 17 17
77 54 54 62 87 46 36 44 45 46 49 40 43 48 45 48 49 48 45 43 42 36 38 42 40 38 39 42 42 39 36 33 31 28 28 25 25 25 26 23 22 20 18
79 79 72 93 54 67 55 54 53 53 45 46 37 47 48 49 48 46 49 46 45 42 41 42 42 40 40 42 44 42 40 38 39 37 31 25 27 28 29 27 25 22 16
78 73 74 73 69 61 72 57 54 59 56 51 37 45 48 47 46 49 49 54 50 46 46 42 44 46 43 39 42 44 44 43 43 39 35 28 28 30 34 33 30 28 25
79 74 79 63 73 61 58 71 52 74 57 58 38 47 44 45 51 47 49 50 53 51 51 45 46 42 41 41 35 38 39 37 38 39 38 38 35 34 36 27 26 29 31
82 82 75 73 79 67 80 74 58 71 64 57 46 49 50 48 48 46 49 47 54 56 54 53 51 47 41 37 32 34 35 36 38 39 40 40 39 36 36 34 33 31 34
93 78 82 76 82 80 91 90 83 74 77 76 60 59 54 50 50 50 49 49 51 53 54 54 52 49 47 43 35 37 36 35 40 42 40 39 40 40 34 37 38 35 35
95 90 86 90 88 88 94 93 92 86 64 71 57 64 55 52 50 48 53 55 52 53 52 52 52 55 51 44 45 43 39 39 36 35 39 40 42 47 43 39 39 39 33
103 107 92 92 105 96 91 84 98 91 89 64 71 65 52 53 55 51 54 58 59 54 60 51 49 52 51 51 53 49 48 45 43 42 39 40 43 44 48 46 42 37 37
114 110 100 99 99 107 95 94 94 86 83 80 83 72 65 62 57 54 57 54 54 59 62 59 48 54 56 59 55 52 48 49 49 46 41 43 45 44 43 45 44 42 45
112 118 112 113 109 107 98 101 102 99 92 80 89 85 71 64 66 59 56 55 51 59 68 69 56 51 56 57 59 55 52 47 55 47 46 45 52 48 49 46 47 47 48
115 118 115 114 115 115 103 100 98 89 89 80 84 102 82 79 65 63 56 54 48 49 57 65 66 56 57 58 58 60 57 53 52 52 54 56 48 53 52 54 55 53 52
116 114 110 113 116 116 115 106 101 86 83 76 76 89 92 88 79 66 66 59 60 52 45 51 51 56 56 56 57 59 57 55 51 54 52 54 53 55 52 54 57 59 58
Wind_Direction
285 290 294 299 308 318 324 282 273 256 248 252 255 231 222 236 222 203 194 178 175 176 174 171 164 164 164 164 170 180 182 181 169 171 158 156 162 165 166 175 174 160 147
280 284 288 294 305 304 320 296 264 252 248 249 249 232 225 234 225 200 188 184 178 182 183 178 175 177 181 178 174 177 183 190 184 183 170 167 178 186 193 196 195 170 150
276 281 285 290 298 300 305 322 258 252 244 249 249 234 224 226 227 208 195 191 185 186 188 187 186 184 187 195 194 183 181 194 203 195 195 196 193 200 209 221 215 216 225
275 278 283 284 293 301 300 304 277 246 247 245 255 234 223 223 231 223 205 201 193 193 194 196 196 193 197 191 188 194 200 206 206 208 201 208 207 216 228 229 239 246 251
272 279 281 286 290 294 289 296 292 247 242 236 259 241 223 221 228 232 220 205 202 201 203 200 199 198 199 188 185 187 195 200 212 218 219 214 220 221 235 238 245 247 234
277 275 275 292 300 302 294 282 289 245 239 234 242 251 222 221 226 233 230 219 210 207 204 202 200 200 194 188 189 190 198 201 206 215 227 232 230 233 239 239 243 251 256
267 269 274 289 295 300 291 280 279 250 241 237 228 257 227 222 221 230 237 226 218 216 209 204 203 201 201 202 207 215 221 221 228 220 224 228 239 253 251 247 254 258 265
259 263 266 275 287 295 288 281 274 244 241 235 231 250 231 226 221 225 229 232 223 221 217 213 213 209 208 215 223 230 231 230 231 230 236 242 243 246 254 260 261 263 265
261 253 270 271 279 287 277 271 268 242 235 232 231 238 234 222 227 223 226 234 228 229 224 222 219 218 220 225 234 240 241 236 239 242 245 239 232 236 240 248 252 257 261
245 246 268 268 266 273 266 283 254 236 231 234 235 233 231 224 225 227 227 232 236 229 225 224 223 222 224 231 238 238 235 239 247 260 266 255 241 235 235 239 243 245 247
246 256 256 260 258 256 266 265 267 247 233 230 234 234 228 223 223 230 228 223 231 233 230 224 224 227 228 230 236 226 230 232 240 264 274 266 257 251 254 247 242 238 237
227 265 260 249 240 245 267 266 257 251 246 231 236 239 228 226 221 222 225 223 226 230 232 231 231 232 233 232 232 215 212 218 231 254 274 278 280 272 265 257 251 245 241
212 239 245 248 233 235 261 271 264 256 267 239 235 241 231 227 223 225 227 227 227 230 229 235 238 239 241 234 226 226 222 224 235 249 265 277 276 283 283 269 260 249 247
205 215 232 241 239 229 247 268 261 264 274 258 230 239 237 228 223 225 226 222 224 227 227 230 233 235 238 240 233 227 223 230 239 247 257 261 268 272 267 259 248 241 241
205 191 209 213 249 232 244 260 255 255 267 271 238 240 238 230 224 222 218 220 223 225 225 227 228 232 231 236 236 231 235 238 248 263 262 249 257 261 256 242 242 239 248
200 200 204 211 219 231 243 248 247 254 256 266 253 236 242 236 228 223 220 219 225 225 230 227 227 228 233 236 235 234 240 246 253 259 254 252 256 256 248 239 238 241 237
199 205 203 202 210 218 227 233 240 245 246 257 254 235 244 244 235 228 225 224 225 225 230 228 231 233 233 234 237 240 242 247 254 253 249 256 259 254 252 246 245 244 236
198 198 193 201 195 197 195 229 231 236 239 248 247 237 237 243 233 233 230 230 227 225 228 226 231 234 239 235 236 240 243 247 248 242 244 252 259 252 252 249 257 242 243
188 186 186 191 202 205 215 222 218 219 239 242 243 237 232 235 238 236 235 234 231 232 231 227 232 233 232 229 232 245 250 246 247 245 248 251 249 248 245 251 248 256 249
183 184 187 192 203 211 215 219 220 228 236 236 245 240 232 231 235 238 238 237 236 235 226 226 233 235 233 230 235 248 254 253 249 247 250 247 248 246 240 244 249 251 254
189 192 199 197 204 208 210 218 219 218 218 225 238 235 232 235 236 239 238 237 239 240 232 230 239 230 235 227 240 246 246 243 251 259 254 251 246 244 240 245 252 255 261
192 198 204 206 202 202 208 216 217 220 224 236 228 230 237 244 237 240 242 238 238 242 238 238 242 227 231 236 239 241 242 244 248 255 258 258 256 250 248 248 254 257 263
193 197 205 204 203 201 209 216 211 213 216 215 227 225 237 242 245 246 246 242 241 240 238 239 244 236 242 238 241 241 240 238 241 253 250 256 257 257 244 244 254 260 270
195 200 203 205 206 203 205 209 213 218 219 216 216 222 230 235 244 243 244 244 244 241 237 236 239 240 236 241 240 239 241 245 239 247 247 248 250 248 245 252 256 263 272
198 202 204 207 205 203 205 205 211 213 219 216 221 223 227 227 233 241 241 245 245 241 240 242 243 243 234 237 240 241 236 249 244 245 246 245 246 247 250 253 256 261 268
199 202 204 204 205 204 207 207 210 212 210 211 217 223 221 227 229 231 239 238 241 244 244 245 236 245 239 243 242 244 246 248 252 241 244 242 247 247 252 254 259 261 266
Height
10758 10760 10760 10761 10760 10759 10759 10757 10759 10758 10758 10759 10757 10760 10763 10767 10770 10772 10773 10774 10776 10778 10781 10782 10783 10785 10787 10789 10790 10790 10791 10792 10794 10795 10797 10798 10799 10800 10801 10801 10802 10803 10803
10750 10752 10753 10754 10753 10753 10754 10753 10754 10754 10754 10756 10756 10757 10760 10764 10767 10770 10772 10773 10775 10778 10780 10782 10783 10785 10787 10788 10789 10790 10790 10791 10793 10795 10796 10797 10799 10800 10801 10802 10802 10803 10803
10740 10742 10745 10746 10747 10747 10747 10749 10749 10750 10751 10752 10754 10753 10757 10761 10764 10767 10769 10771 10773 10776 10778 10780 10782 10784 10785 10787 10788 10789 10790 10791 10792 10794 10796 10797 10799 10800 10800 10801 10802 10802 10803
10731 10733 10736 10737 10738 10740 10741 10742 10743 10744 10746 10747 10750 10750 10754 10757 10761 10765 10767 10769 10771 10774 10776 10778 10780 10782 10784 10786 10787 10789 10790 10791 10792 10793 10795 10796 10798 10798 10799 10800 10800 10801 10802
10721 10723 10726 10728 10731 10732 10734 10735 10736 10738 10739 10742 10746 10746 10748 10752 10756 10760 10764 10766 10768 10770 10773 10775 10778 10780 10782 10784 10786 10788 10789 10790 10791 10792 10793 10795 10796 10797 10797 10798 10799 10799 10800
10711 10714 10716 10721 10723 10725 10727 10728 10729 10730 10733 10736 10740 10742 10744 10747 10751 10755 10760 10764 10766 10767 10769 10772 10775 10777 10780 10782 10784 10786 10788 10789 10790 10790 10791 10792 10794 10795 10796 10796 10797 10798 10798
10701 10705 10708 10713 10716 10718 10718 10719 10721 10723 10726 10730 10733 10737 10739 10742 10746 10751 10754 10759 10762 10765 10766 10769 10771 10774 10777 10780 10782 10785 10786 10787 10788 10788 10789 10790 10791 10792 10793 10794 10795 10796 10796
10690 10694 10699 10703 10707 10710 10710 10712 10713 10714 10718 10724 10726 10731 10735 10738 10742 10744 10750 10753 10757 10760 10763 10766 10769 10771 10773 10776 10778 10781 10783 10784 10785 10786 10787 10788 10788 10790 10791 10791 10792 10793 10794
10680 10683 10688 10692 10698 10702 10703 10702 10705 10706 10710 10714 10720 10725 10729 10731 10732 10740 10743 10748 10753 10756 10760 10762 10765 10768 10769 10772 10774 10776 10779 10780 10781 10782 10783 10784 10785 10786 10787 10788 10789 10790 10790
10667 10672 10678 10684 10689 10694 10695 10694 10695 10699 10703 10709 10714 10717 10720 10724 10730 10734 10740 10743 10747 10750 10754 10757 10760 10762 10765 10768 10770 10772 10775 10777 10778 10779 10779 10780 10781 10782 10783 10783 10784 10785 10785
10656 10665 10673 10677 10681 10685 10686 10688 10689 10691 10697 10702 10707 10710 10711 10716 10724 10728 10732 10736 10740 10743 10748 10752 10755 10757 10760 10763 10765 10768 10770 10772 10774 10774 10775 10777 10777 10778 10779 10779 10779 10779 10780
10645 10655 10663 10668 10672 10675 10677 10679 10682 10686 10690 10695 10698 10704 10706 10710 10715 10718 10721 10728 10732 10738 10743 10748 10749 10751 10754 10756 10759 10761 10763 10765 10769 10770 10771 10773 10774 10774 10774 10775 10775 10775 10775
10622 10655 10654 10664 10665 10667 10671 10670 10675 10679 10683 10687 10690 10695 10697 10700 10703 10711 10716 10723 10727 10731 10736 10740 10743 10746 10749 10751 10753 10756 10759 10761 10762 10764 10766 10768 10769 10769 10770 10771 10771 10771 10772
10610 10630 10646 10651 10652 10652 10658 10666 10670 10673 10675 10678 10680 10684 10690 10691 10695 10701 10707 10714 10719 10725 10730 10732 10736 10739 10742 10744 10748 10751 10753 10755 10757 10758 10760 10762 10763 10764 10765 10766 10767 10767 10767
10588 10611 10609 10633 10632 10639 10643 10657 10663 10667 10670 10671 10673 10677 10681 10683 10686 10692 10700 10706 10711 10719 10721 10724 10728 10731 10734 10737 10741 10746 10748 10751 10752 10753 10755 10756 10757 10758 10759 10761 10763 10763 10764
10571 10583 10600 10616 10617 10630 10635 10648 10649 10653 10661 10664 10665 10671 10675 10675 10679 10685 10692 10697 10704 10711 10715 10718 10720 10724 10727 10731 10734 10738 10741 10744 10746 10748 10750 10751 10751 10752 10753 10755 10757 10758 10760
10547 10564 10570 10585 10599 10614 10627 10633 10636 10642 10649 10654 10656 10663 10667 10667 10670 10675 10682 10687 10695 10702 10707 10709 10712 10716 10721 10724 10727 10731 10732 10736 10739 10741 10743 10744 10746 10746 10747 10748 10750 10751 10752
10530 10545 10560 10574 10594 10596 10586 10623 10630 10638 10637 10639 10644 10652 10657 10658 10659 10664 10672 10680 10685 10692 10698 10700 10703 10708 10712 10717 10720 10722 10724 10726 10728 10731 10735 10737 10738 10739 10740 10742 10743 10744 10744
10514 10528 10548 10560 10572 10585 10595 10602 10614 10619 10621 10626 10633 10639 10645 10649 10650 10654 10662 10668 10674 10680 10686 10692 10695 10700 10704 10708 10712 10714 10715 10716 10719 10721 10725 10727 10729 10732 10734 10735 10735 10737 10738
10494 10511 10522 10530 10543 10555 10567 10580 10596 10608 10608 10616 10619 10625 10629 10638 10641 10644 10649 10653 10661 10669 10675 10683 10686 10690 10695 10698 10701 10706 10708 10708 10708 10711 10715 10717 10720 10723 10726 10726 10728 10730 10731
10472 10480 10481 10506 10523 10541 10549 10561 10573 10587 10592 10598 10607 10612 10616 10622 10627 10632 10637 10641 10647 10656 10664 10671 10675 10679 10685 10689 10691 10692 10695 10697 10700 10703 10706 10709 10710 10713 10716 10719 10721 10722 10725
10440 10453 10467 10473 10489 10513 10532 10544 10553 10564 10574 10580 10589 10599 10602 10608 10611 10618 10625 10629 10635 10643 10652 10659 10663 10670 10674 10677 10679 10683 10685 10687 10690 10691 10695 10698 10700 10703 10706 10709 10711 10713 10715
10425 10441 10452 10463 10479 10497 10514 10523 10537 10545 10555 10563 10572 10579 10586 10596 10601 10607 10611 10617 10621 10628 10638 10645 10652 10658 10659 10662 10664 10671 10675 10677 10679 10678 10684 10687 10690 10692 10693 10696 10699 10701 10703
10416 10426 10437 10444 10459 10483 10491 10504 10515 10529 10539 10546 10555 10565 10574 10583 10590 10596 10598 10602 10606 10615 10623 10631 10636 10641 10644 10646 10654 10656 10659 10664 10669 10671 10674 10678 10677 10680 10681 10684 10687 10689 10691
10402 10415 10423 10436 10447 10458 10476 10486 10498 10509 10518 10529 10538 10548 10560 10565 10576 10584 10584 10588 10594 10600 10606 10615 10622 10626 10631 10633 10637 10641 10648 10650 10655 10657 10659 10663 10666 10667 10671 10673 10676 10678 10680
10397 10404 10413 10423 10437 10443 10457 10469 10478 10494 10505 10515 10526 10534 10543 10551 10561 10567 10569 10577 10580 10585 10596 10604 10608 10613 10617 10620 10623 10628 10633 10638 10641 10645 10645 10649 10650 10653 10655 10659 10661 10664 10666